Showing default

QIANFAN-70, 62800

Orbit data source: Space-Track

QIANFAN-70, 62800 is a Chinese payload satellite in LEO that was launched on Thu, 23 Jan 2025 UTC via a CHANG ZHENG 6A launch vehicle from the Taiyaun Space Center, China (TSC). Payload-class satellites include a variety of spacecraft equipped with specific instruments for various scientific and technological missions. These include communications satellites like Starlink; space stations such as the ISS; scientific satellites like the Hubble; Earth observation satellites from companies like Planet Labs, Umbra, and HawkEye 360; GPS; miniature CubeSats for education and research; and military/defense satellites.

Loading next visibility...
Identifier
62800, 2025-016R
Orbit
LEO
Country
Flag of CNCN / PRC
Related business
Manufacturer
SECM
Mission
Operational Commercial Communications
Bus & Motor
QIANFAN, Unknown motor
Mass
267 kg wet, ~267 kg dry
Launch date (UTC)
2025-01-23 (1 year ago)
Launch vehicle
CHANG ZHENG 6A
Launch site
Taiyaun Space Center, China (TSC)
Object type
Payload
Rocket body
Debris
Shape & HBR
Box + 1 Pan, 1.3 m
Radar Cross Section
13.200 m², Large (>1 m²)

Expand to show TLE details & history
Last TLE update: 7 hours ago

TLE from 7 hours ago
0 QIANFAN-70
1 62800U 25016R   26035.78085932  .00000106  00000-0  14534-3 0  9995
2 62800  88.9733  97.5255 0016116 172.2930 187.8471 13.50994140 54537
Epoch: 2026-02-04T18:44Z
TLE epoch observation values (Epoch: 2026-02-04T18:44:26.245Z)
Latitude
-0.0001°
Longitude
41.47362°
Altitude
1,083.448 km
Speed
7.305 km/s
True Right ascension
06h 30m 06s
True Declination
0° 00' 00"
Sunlit
Object was in full shadow at epoch
Visualization orbit readout
Latitude
Unknown
Longitude
Unknown
Altitude
Unknown
Speed
Unknown
Apparent Right ascension
Unknown
Apparent Declination
Unknown
Sunlit
N/A
Visualization observer readout
Local Sidereal Time
03:17:10
Azimuth
Unknown
Elevation
Unknown
Doppler factor
Unknown
Orbital elements
Apogee altitude
1,077.651 km
Perigee altitude
1,053.658 km
Semi-major axis
7,443.791 km
Eccentricity
0.00161
Inclination
88.9733°
RAAN
97.5255°
Arg. of periapsis
172.293°
True anomaly
187.82194°
Mean anomaly
187.8471°
Eccentric anomaly
187.83451°
Mean motion
3.3795 °/min
Orbital period
106.52 mins
BSTAR
0.00014534
Loading maneuver chart data...
Computing Atmospheric mass density...
Loading historical data...
Loading historical data...
Loading historical data...
Loading historical data...
Loading historical data...
Loading historical data...
Loading historical data...

Documentation

Showing up to 5 results
|